Time,TemperatureF,DewpointF,PressureIn,WindDirection,WindDirectionDegrees,WindSpeedMPH,WindSpeedGustMPH,Humidity,HourlyPrecipIn,Conditions,Clouds,dailyrainin,SolarRadiationWatts/m^2,SoftwareType,DateUTC
2013-07-13 00:01:00,75.0,74.0,-100.00,SSW,205,0.0,6.0,98,0.00,,,0.00,0.000000,,2013-07-13 05:01:00,
2013-07-13 00:11:00,75.0,74.0,-100.00,SSW,205,0.0,6.0,98,0.00,,,0.00,0.000000,,2013-07-13 05:11:00,
2013-07-13 00:42:00,74.0,74.0,-100.00,WSW,257,1.0,7.0,100,0.00,,,0.00,0.000000,,2013-07-13 05:42:00,
2013-07-13 00:52:00,74.0,74.0,-100.00,WSW,257,1.0,7.0,100,0.00,,,0.00,0.000000,,2013-07-13 05:52:00,
2013-07-13 01:02:00,74.0,74.0,-100.00,WSW,257,1.0,7.0,100,0.00,,,0.00,0.000000,,2013-07-13 06:02:00,
2013-07-13 01:11:00,74.0,74.0,-100.00,WSW,257,1.0,7.0,100,0.00,,,0.00,0.000000,,2013-07-13 06:11:00,
2013-07-13 01:43:00,73.0,73.0,-100.00,East,93,0.0,0.0,100,0.00,,,0.00,0.000000,,2013-07-13 06:43:00,
2013-07-13 01:52:00,73.0,73.0,-100.00,East,93,0.0,0.0,100,0.00,,,0.00,0.000000,,2013-07-13 06:52:00,
2013-07-13 02:02:00,73.0,73.0,-100.00,East,93,0.0,0.0,100,0.00,,,0.00,0.000000,,2013-07-13 07:02:00,
2013-07-13 02:11:00,73.0,73.0,-100.00,East,93,0.0,0.0,100,0.00,,,0.00,0.000000,,2013-07-13 07:11:00,
2013-07-13 02:44:00,72.0,72.0,-100.00,East,101,0.0,5.0,100,0.00,,,0.00,0.000000,,2013-07-13 07:44:00,
2013-07-13 02:53:00,72.0,72.0,-100.00,East,101,0.0,5.0,100,0.00,,,0.00,0.000000,,2013-07-13 07:53:00,
2013-07-13 03:02:00,72.0,72.0,-100.00,East,101,0.0,5.0,100,0.00,,,0.00,0.000000,,2013-07-13 08:02:00,
2013-07-13 03:12:00,72.0,72.0,-100.00,East,101,0.0,5.0,100,0.00,,,0.00,0.000000,,2013-07-13 08:12:00,
2013-07-13 03:43:00,72.0,72.0,-100.00,NNE,20,0.0,4.0,100,0.00,,,0.00,0.000000,,2013-07-13 08:43:00,
2013-07-13 03:52:00,72.0,72.0,-100.00,NNE,20,0.0,4.0,100,0.00,,,0.00,0.000000,,2013-07-13 08:52:00,
2013-07-13 04:02:00,72.0,72.0,-100.00,NNE,20,0.0,4.0,100,0.00,,,0.00,0.000000,,2013-07-13 09:02:00,
2013-07-13 04:11:00,72.0,72.0,-100.00,NNE,20,0.0,4.0,100,0.00,,,0.00,0.000000,,2013-07-13 09:11:00,
2013-07-13 04:43:00,71.0,71.0,-100.00,NNW,345,0.0,0.0,100,0.00,,,0.00,0.000000,,2013-07-13 09:43:00,
2013-07-13 04:53:00,71.0,71.0,-100.00,NNW,345,0.0,0.0,100,0.00,,,0.00,0.000000,,2013-07-13 09:53:00,
2013-07-13 05:01:00,71.0,71.0,-100.00,NNW,345,0.0,0.0,100,0.00,,,0.00,0.000000,,2013-07-13 10:01:00,
2013-07-13 05:11:00,71.0,71.0,-100.00,NNW,345,0.0,0.0,100,0.00,,,0.00,0.000000,,2013-07-13 10:11:00,
2013-07-13 05:43:00,70.0,70.0,-100.00,ENE,71,0.0,0.0,100,0.00,,,0.00,0.000000,,2013-07-13 10:43:00,
2013-07-13 05:52:00,70.0,70.0,-100.00,ENE,71,0.0,0.0,100,0.00,,,0.00,0.000000,,2013-07-13 10:52:00,
2013-07-13 06:02:00,70.0,70.0,-100.00,ENE,71,0.0,0.0,100,0.00,,,0.00,0.000000,,2013-07-13 11:02:00,
2013-07-13 06:11:00,70.0,70.0,-100.00,ENE,71,0.0,0.0,100,0.00,,,0.00,0.000000,,2013-07-13 11:11:00,
2013-07-13 06:43:00,70.0,70.0,-100.00,ENE,59,0.0,2.0,100,0.00,,,0.00,2.000000,,2013-07-13 11:43:00,
2013-07-13 06:52:00,70.0,70.0,-100.00,ENE,59,0.0,2.0,100,0.00,,,0.00,2.000000,,2013-07-13 11:52:00,
2013-07-13 07:02:00,70.0,70.0,-100.00,ENE,59,0.0,2.0,100,0.00,,,0.00,2.000000,,2013-07-13 12:02:00,
2013-07-13 07:12:00,70.0,70.0,-100.00,ENE,59,0.0,2.0,100,0.00,,,0.00,2.000000,,2013-07-13 12:12:00,
2013-07-13 07:43:00,72.0,72.0,-100.00,SSE,153,0.0,0.0,100,0.00,,,0.00,59.000000,,2013-07-13 12:43:00,
2013-07-13 07:52:00,72.0,72.0,-100.00,SSE,153,0.0,0.0,100,0.00,,,0.00,59.000000,,2013-07-13 12:52:00,
2013-07-13 08:01:00,72.0,72.0,-100.00,SSE,153,0.0,0.0,100,0.00,,,0.00,59.000000,,2013-07-13 13:01:00,
2013-07-13 08:12:00,72.0,72.0,-100.00,SSE,153,0.0,0.0,100,0.00,,,0.00,59.000000,,2013-07-13 13:12:00,
2013-07-13 08:43:00,80.0,74.0,-100.00,SSE,162,0.0,5.0,82,0.00,,,0.00,272.000000,,2013-07-13 13:43:00,
2013-07-13 08:53:00,80.0,74.0,-100.00,SSE,162,0.0,5.0,82,0.00,,,0.00,272.000000,,2013-07-13 13:53:00,
2013-07-13 09:02:00,80.0,74.0,-100.00,SSE,162,0.0,5.0,82,0.00,,,0.00,272.000000,,2013-07-13 14:02:00,
2013-07-13 09:11:00,80.0,74.0,-100.00,SSE,162,0.0,5.0,82,0.00,,,0.00,272.000000,,2013-07-13 14:11:00,
2013-07-13 09:53:00,84.0,74.0,-100.00,SW,231,0.0,0.0,72,0.00,,,0.00,504.000000,,2013-07-13 14:53:00,
2013-07-13 10:02:00,84.0,74.0,-100.00,SW,231,0.0,0.0,72,0.00,,,0.00,504.000000,,2013-07-13 15:02:00,
2013-07-13 10:12:00,84.0,74.0,-100.00,SW,231,0.0,0.0,72,0.00,,,0.00,504.000000,,2013-07-13 15:12:00,
2013-07-13 10:43:00,83.0,74.0,-100.00,East,86,4.0,9.0,74,0.00,,,0.00,554.000000,,2013-07-13 15:43:00,
2013-07-13 10:53:00,83.0,74.0,-100.00,East,86,4.0,9.0,74,0.00,,,0.00,554.000000,,2013-07-13 15:53:00,
2013-07-13 11:02:00,83.0,74.0,-100.00,East,86,4.0,9.0,74,0.00,,,0.00,554.000000,,2013-07-13 16:02:00,
2013-07-13 11:11:00,83.0,74.0,-100.00,East,86,4.0,9.0,74,0.00,,,0.00,554.000000,,2013-07-13 16:11:00,
2013-07-13 12:12:00,89.0,75.0,-100.00,SSE,149,3.0,9.0,63,0.00,,,0.00,682.000000,,2013-07-13 17:12:00,
2013-07-13 12:43:00,85.0,74.0,-100.00,East,85,3.0,9.0,69,0.00,,,0.00,536.000000,,2013-07-13 17:43:00,
2013-07-13 12:52:00,85.0,74.0,-100.00,East,85,3.0,9.0,69,0.00,,,0.00,536.000000,,2013-07-13 17:52:00,
2013-07-13 13:01:00,85.0,74.0,-100.00,East,85,3.0,9.0,69,0.00,,,0.00,536.000000,,2013-07-13 18:01:00,
2013-07-13 13:11:00,85.0,74.0,-100.00,East,85,3.0,9.0,69,0.00,,,0.00,536.000000,,2013-07-13 18:11:00,
2013-07-13 13:44:00,83.0,75.0,-100.00,ESE,123,1.0,9.0,76,0.00,,,0.00,243.000000,,2013-07-13 18:44:00,
2013-07-13 13:53:00,83.0,75.0,-100.00,ESE,123,1.0,9.0,76,0.00,,,0.00,243.000000,,2013-07-13 18:53:00,
2013-07-13 14:02:00,83.0,75.0,-100.00,ESE,123,1.0,9.0,76,0.00,,,0.00,243.000000,,2013-07-13 19:02:00,
2013-07-13 14:11:00,83.0,75.0,-100.00,ESE,123,1.0,9.0,76,0.00,,,0.00,243.000000,,2013-07-13 19:11:00,
2013-07-13 14:44:00,80.0,72.0,-100.00,SSW,198,3.0,12.0,77,0.00,,,0.00,148.000000,,2013-07-13 19:44:00,
2013-07-13 14:52:00,80.0,72.0,-100.00,SSW,198,3.0,12.0,77,0.00,,,0.00,148.000000,,2013-07-13 19:52:00,
2013-07-13 15:01:00,80.0,72.0,-100.00,SSW,198,3.0,12.0,77,0.00,,,0.00,148.000000,,2013-07-13 20:01:00,
2013-07-13 15:11:00,80.0,72.0,-100.00,SSW,198,3.0,12.0,77,0.00,,,0.00,148.000000,,2013-07-13 20:11:00,
2013-07-13 16:43:00,84.0,74.0,-100.00,SSE,163,3.0,8.0,72,-99.99,,,0.00,451.000000,,2013-07-13 21:43:00,
2013-07-13 16:53:00,84.0,74.0,-100.00,SSE,163,3.0,8.0,72,-99.99,,,0.00,451.000000,,2013-07-13 21:53:00,
2013-07-13 17:01:00,84.0,74.0,-100.00,SSE,163,3.0,8.0,72,-99.99,,,0.00,451.000000,,2013-07-13 22:01:00,
2013-07-13 17:12:00,84.0,74.0,-100.00,SSE,163,3.0,8.0,72,-99.99,,,0.00,451.000000,,2013-07-13 22:12:00,
2013-07-13 17:43:00,83.0,75.0,-100.00,South,170,1.0,7.0,78,0.00,,,0.00,273.000000,,2013-07-13 22:43:00,
2013-07-13 17:53:00,83.0,75.0,-100.00,South,170,1.0,7.0,78,0.00,,,0.00,273.000000,,2013-07-13 22:53:00,
2013-07-13 18:02:00,83.0,75.0,-100.00,South,170,1.0,7.0,78,0.00,,,0.00,273.000000,,2013-07-13 23:02:00,
2013-07-13 18:11:00,83.0,75.0,-100.00,South,170,1.0,7.0,78,0.00,,,0.00,273.000000,,2013-07-13 23:11:00,
2013-07-13 18:42:00,84.0,73.0,-100.00,East,82,1.0,6.0,70,0.00,,,0.00,228.000000,,2013-07-13 23:42:00,
2013-07-13 18:53:00,84.0,73.0,-100.00,East,82,1.0,6.0,70,0.00,,,0.00,228.000000,,2013-07-13 23:53:00,
2013-07-13 19:01:00,84.0,73.0,-100.00,East,82,1.0,6.0,70,0.00,,,0.00,228.000000,,2013-07-14 00:01:00,
2013-07-13 19:12:00,84.0,73.0,-100.00,East,82,1.0,6.0,70,0.00,,,0.00,228.000000,,2013-07-14 00:12:00,
2013-07-13 19:42:00,81.0,75.0,-100.00,WNW,292,0.0,0.0,81,0.00,,,-99.99,70.000000,,2013-07-14 00:42:00,
2013-07-13 19:53:00,81.0,75.0,-100.00,WNW,292,0.0,0.0,81,0.00,,,-99.99,70.000000,,2013-07-14 00:53:00,
2013-07-13 20:02:00,81.0,75.0,-100.00,WNW,292,0.0,0.0,81,0.00,,,-99.99,70.000000,,2013-07-14 01:02:00,
2013-07-13 20:11:00,81.0,75.0,-100.00,WNW,292,0.0,0.0,81,0.00,,,-99.99,70.000000,,2013-07-14 01:11:00,
2013-07-13 20:43:00,71.0,71.0,-100.00,SE,128,2.0,12.0,100,1.05,,,1.05,2.000000,,2013-07-14 01:43:00,
2013-07-13 20:52:00,71.0,71.0,-100.00,SE,128,2.0,12.0,100,1.05,,,1.05,2.000000,,2013-07-14 01:52:00,
2013-07-13 21:02:00,71.0,71.0,-100.00,SE,128,2.0,12.0,100,1.05,,,1.05,2.000000,,2013-07-14 02:02:00,
2013-07-13 21:11:00,71.0,71.0,-100.00,SE,128,2.0,12.0,100,1.05,,,1.05,2.000000,,2013-07-14 02:11:00,
2013-07-13 21:43:00,70.0,70.0,-100.00,SE,125,1.0,7.0,100,0.00,,,1.05,0.000000,,2013-07-14 02:43:00,
2013-07-13 21:53:00,70.0,70.0,-100.00,SE,125,1.0,7.0,100,0.00,,,1.05,0.000000,,2013-07-14 02:53:00,
2013-07-13 22:02:00,70.0,70.0,-100.00,SE,125,1.0,7.0,100,0.00,,,1.05,0.000000,,2013-07-14 03:02:00,
2013-07-13 22:11:00,70.0,70.0,-100.00,SE,125,1.0,7.0,100,0.00,,,1.05,0.000000,,2013-07-14 03:11:00,
2013-07-13 22:43:00,70.0,70.0,-100.00,North,349,2.0,9.0,100,0.00,,,1.05,0.000000,,2013-07-14 03:43:00,
2013-07-13 22:53:00,70.0,70.0,-100.00,North,349,2.0,9.0,100,0.00,,,1.05,0.000000,,2013-07-14 03:53:00,
2013-07-13 23:02:00,70.0,70.0,-100.00,North,349,2.0,9.0,100,0.00,,,1.05,0.000000,,2013-07-14 04:02:00,
2013-07-13 23:11:00,70.0,70.0,-100.00,North,349,2.0,9.0,100,0.00,,,1.05,0.000000,,2013-07-14 04:11:00,
2013-07-13 23:42:00,69.0,69.0,-100.00,NW,317,0.0,3.0,100,0.00,,,1.05,0.000000,,2013-07-14 04:42:00,
2013-07-13 23:54:00,69.0,69.0,-100.00,NW,317,0.0,3.0,100,0.00,,,1.05,0.000000,,2013-07-14 04:54:00,